Temperature
16 16 16 16 16 16 16 16 16 16 16 16 16 16 16 16 16 16 16 16 16 16 16 16 16 16 16 16 17 17 17 17 17 17 17 17 17 17 17 17 17 17 18
16 16 16 16 16 16 16 16 16 16 16 16 16 16 16 16 16 16 16 16 16 16 16 16 16 16 16 16 16 17 17 17 17 17 17 17 17 17 17 17 17 17 17
16 16 16 16 16 16 16 16 16 16 16 16 16 16 16 16 15 15 15 16 16 16 16 16 16 16 16 16 16 16 16 17 17 16 17 17 17 17 17 17 17 17 17
16 16 16 16 16 16 16 16 16 16 16 16 16 16 15 15 15 15 15 15 15 15 15 15 16 16 16 16 16 16 16 16 16 16 16 17 17 17 17 17 17 17 17
16 16 16 16 16 16 16 16 16 16 16 16 15 15 15 15 15 15 15 15 15 15 15 15 15 16 16 16 16 16 16 16 16 16 16 16 16 16 16 16 17 17 17
16 16 16 16 16 16 16 16 16 16 16 16 15 15 15 15 15 15 15 15 15 15 15 15 15 15 16 16 16 16 16 16 16 16 16 16 16 16 16 16 16 16 17
16 16 16 16 15 16 15 15 16 15 15 15 15 15 15 15 15 15 15 15 15 15 15 15 15 15 15 15 16 16 16 16 16 16 16 16 16 16 16 16 16 16 16
16 16 16 15 15 15 15 15 15 15 15 15 16 15 15 15 14 14 15 15 15 15 15 14 15 15 15 15 15 15 15 15 15 15 15 15 15 16 16 16 16 16 16
15 15 15 15 15 15 15 15 15 15 15 15 15 15 15 15 14 14 14 14 14 14 14 14 14 15 15 15 15 15 15 15 15 15 15 15 15 15 15 15 15 16 16
15 15 15 15 15 15 15 15 15 15 15 15 15 15 15 15 15 14 14 14 14 14 14 14 14 14 14 15 15 15 15 15 15 15 15 15 15 15 15 15 15 15 15
15 15 15 15 15 15 15 15 15 15 15 15 15 15 15 15 15 15 14 14 14 14 14 14 14 14 14 14 14 14 15 15 15 15 15 15 15 15 15 15 15 15 15
15 15 15 15 15 15 15 15 15 15 15 15 15 15 15 15 15 15 14 14 14 13 13 14 14 14 14 14 14 14 14 14 14 14 14 15 15 15 15 15 15 15 15
15 15 16 16 15 15 15 15 15 15 15 15 15 15 15 15 15 15 15 14 14 13 13 13 13 13 14 14 14 14 14 14 14 14 14 14 14 14 14 14 14 14 14
15 16 16 15 15 15 15 15 15 15 15 15 15 15 15 15 15 15 15 15 14 13 13 13 13 13 13 14 13 14 14 14 14 14 14 14 14 14 14 14 14 14 14
15 15 15 15 15 15 15 15 15 15 15 15 15 15 15 15 15 15 15 15 15 14 13 13 13 13 13 13 13 13 14 13 13 13 13 13 14 14 14 14 14 14 14
16 16 15 16 15 15 15 15 15 15 15 15 15 15 15 15 15 15 15 15 15 15 14 13 13 13 13 13 13 13 13 13 13 13 13 13 13 13 13 13 13 13 13
16 16 16 16 16 16 15 15 15 15 15 15 15 15 15 15 15 15 15 15 15 15 14 14 13 13 13 13 13 13 13 13 13 13 13 13 13 13 13 13 13 13 13
16 16 16 16 16 16 15 15 15 15 15 15 15 15 15 15 15 15 15 15 14 14 14 14 14 13 13 13 13 13 13 13 13 13 13 13 12 12 12 12 12 12 12
16 16 16 16 16 16 15 15 15 15 15 15 15 15 15 15 15 15 15 15 14 14 14 14 14 13 13 13 13 13 13 13 13 12 12 12 12 12 12 12 12 12 12
16 16 16 16 16 16 15 15 15 15 15 15 15 15 15 15 15 15 15 14 14 14 14 14 14 13 13 13 13 13 13 13 13 12 12 12 12 12 12 12 12 12 12
16 16 16 16 16 16 15 15 15 15 15 15 15 15 15 15 15 15 14 14 14 14 14 14 14 13 13 13 13 13 13 13 12 12 12 12 12 12 12 12 11 11 11
16 16 16 16 16 16 15 15 15 15 15 15 15 15 15 15 14 14 14 14 14 14 14 14 14 13 13 13 13 13 13 12 12 12 12 12 12 12 11 11 11 11 11
16 16 16 16 16 16 16 15 15 15 15 15 15 15 15 15 14 14 14 14 14 14 14 13 13 13 13 13 13 12 12 12 12 12 12 12 12 12 11 11 11 10 10
16 16 16 16 16 16 16 16 15 15 15 15 15 15 15 15 14 14 14 14 14 14 13 13 13 13 13 12 12 12 12 12 12 12 11 11 11 11 11 11 10 10 10
16 16 16 16 16 16 15 15 15 15 15 15 15 15 15 14 14 14 14 14 14 13 13 13 13 13 13 12 12 12 12 12 12 12 11 11 11 11 11 11 10 10 10
16 16 16 16 16 15 15 15 15 15 15 15 15 14 14 14 14 14 14 14 14 13 13 13 13 13 12 12 12 12 12 11 11 11 11 10 10 10 10 10 10 10 9
Wind_Speed
2 2 1 1 1 2 3 3 4 5 6 6 7 8 7 7 7 7 8 11 11 11 11 11 12 12 12 12 13 12 13 13 13 13 13 13 13 12 11 10 9 7 6
4 3 2 2 2 4 5 4 4 4 4 5 6 7 7 7 7 8 8 10 12 12 13 13 13 13 13 13 13 13 14 14 14 14 15 15 15 14 13 11 10 10 8
7 5 3 2 3 5 7 6 6 6 4 5 6 5 6 6 7 7 7 8 9 12 13 13 14 14 14 15 15 15 15 15 15 15 16 16 16 15 15 14 13 12 11
9 7 4 3 5 7 6 4 4 5 5 5 5 4 4 5 6 6 7 7 8 9 11 14 14 14 15 15 15 15 16 16 16 16 16 17 17 17 17 16 15 14 12
9 8 5 4 6 6 4 4 4 4 4 4 4 5 4 4 4 5 6 6 7 8 9 11 13 15 15 16 16 16 16 17 17 17 17 17 17 17 18 17 17 16 14
9 9 6 6 7 5 4 4 5 4 4 4 6 6 5 5 4 5 4 6 6 8 9 9 10 11 15 16 16 16 16 17 17 17 17 17 17 17 17 17 17 17 16
8 8 5 5 5 4 4 4 4 5 4 3 5 5 5 6 6 5 5 5 5 7 9 9 9 10 11 14 16 16 16 16 16 17 17 17 17 17 18 18 18 17 17
7 6 5 3 4 4 5 4 4 3 2 2 3 4 3 5 5 5 4 4 5 7 8 9 10 10 11 11 13 16 16 16 16 17 17 17 17 18 18 18 18 17 17
7 6 6 5 4 4 3 3 4 4 2 2 2 4 4 2 1 4 5 5 5 4 5 7 9 10 10 11 12 14 16 16 16 17 17 17 17 17 17 18 18 18 17
6 6 6 6 4 3 3 2 3 3 3 1 1 2 2 4 3 1 3 4 5 5 4 5 7 8 9 10 11 13 15 16 16 17 16 16 17 17 17 17 17 17 18
5 6 6 6 4 3 3 3 3 3 3 3 2 2 3 3 3 3 2 2 3 4 3 4 5 6 8 9 10 12 14 15 16 16 16 16 16 16 16 17 17 16 17
3 4 5 5 4 3 3 3 3 4 3 3 2 2 3 3 2 3 3 1 2 2 3 3 4 5 7 8 9 12 12 14 15 15 15 15 15 16 16 16 16 17 17
1 1 3 3 3 3 4 4 4 4 3 4 3 2 2 2 3 4 4 3 2 1 2 3 3 4 5 7 7 9 11 12 13 13 14 14 14 15 15 15 16 16 15
2 2 3 3 4 4 5 5 4 3 4 4 4 4 3 2 3 4 4 4 3 2 2 2 2 3 3 5 6 8 9 10 11 12 13 13 13 14 14 15 15 15 14
2 3 4 3 3 4 5 5 4 4 4 4 4 5 4 3 3 3 3 4 5 3 0 2 1 2 2 3 5 6 7 8 9 10 11 12 12 12 13 13 13 14 14
3 4 4 3 3 4 4 5 4 3 5 4 3 5 4 3 3 3 3 2 3 4 2 2 2 1 1 3 4 6 6 7 8 9 10 10 11 11 12 12 12 13 13
5 5 4 4 4 4 4 4 4 4 5 4 4 5 4 4 4 3 3 3 3 3 4 0 0 1 1 2 3 4 5 6 6 8 8 9 10 11 11 11 12 12 12
5 5 4 4 4 4 4 5 4 4 5 4 3 4 3 4 4 3 4 4 3 3 4 3 1 1 1 1 2 2 3 4 5 6 7 7 8 9 9 10 10 10 11
5 4 5 5 4 4 4 4 4 4 4 4 3 4 3 4 4 3 4 4 3 3 3 3 1 1 1 1 2 2 3 3 4 4 5 6 6 6 7 8 8 9 9
6 5 5 5 4 4 4 4 4 4 4 3 3 4 4 4 4 4 4 4 4 4 3 3 2 1 1 1 2 2 2 2 2 3 4 5 5 5 6 6 6 7 8
6 5 5 4 4 4 4 5 4 5 4 3 2 2 2 4 5 5 4 4 4 3 3 3 2 1 1 1 1 0 1 2 2 2 2 3 3 3 4 4 4 5 6
5 5 5 5 4 3 5 7 6 5 4 4 3 2 1 2 4 6 6 6 6 5 4 3 1 1 1 1 0 1 1 1 2 2 1 2 2 2 4 5 5 5 6
5 5 5 5 4 4 6 7 7 5 4 3 3 2 2 2 3 3 4 4 2 3 5 5 4 3 3 3 2 1 1 2 2 2 1 2 2 2 4 5 5 5 5
6 5 4 5 4 3 6 8 8 5 4 3 3 3 3 3 3 4 4 2 1 1 1 3 4 4 4 4 4 3 3 1 1 2 1 1 2 2 3 4 4 4 4
5 4 4 5 4 3 5 6 7 4 3 2 1 2 4 4 4 6 5 3 0 2 1 2 4 4 4 5 4 3 2 1 1 2 1 1 2 2 2 3 5 5 5
5 5 4 3 4 3 4 6 7 3 3 1 0 0 2 4 5 6 5 5 3 3 1 1 1 2 1 2 3 4 4 3 1 2 2 2 1 1 3 3 3 5 5
Wind_Direction
133 130 122 93 74 81 86 80 67 61 60 71 95 103 101 95 90 82 77 76 74 70 69 66 62 59 56 53 48 44 40 36 33 32 30 26 24 23 23 25 30 37 48
119 111 89 80 79 91 94 93 84 73 63 70 75 93 101 101 93 86 80 73 71 69 65 63 60 56 55 53 49 44 42 38 35 34 34 31 27 27 28 32 37 41 50
106 103 90 75 83 97 95 86 76 72 71 68 62 72 92 96 93 86 83 77 70 66 64 61 56 53 52 50 49 47 45 42 39 39 37 35 31 34 37 40 43 46 52
94 87 76 69 87 87 85 83 74 75 66 64 60 55 70 85 89 89 82 78 73 69 62 61 58 52 51 49 47 48 46 44 41 41 41 39 38 42 45 45 45 49 54
90 88 80 78 87 79 71 81 73 84 80 72 72 58 54 61 70 89 81 76 75 72 66 61 58 52 50 49 47 46 46 45 42 42 43 43 42 45 46 47 48 49 54
89 88 82 80 85 79 68 75 80 70 80 86 81 61 44 44 49 60 69 71 72 73 68 64 55 47 47 46 45 45 45 45 43 42 45 47 45 46 47 48 50 52 53
84 86 86 77 80 87 94 96 93 76 66 87 83 55 32 35 43 41 47 61 61 68 72 66 61 52 45 42 41 42 43 43 44 44 47 49 49 49 49 50 51 53 53
81 94 97 92 89 89 78 84 98 96 65 66 107 94 50 20 18 26 33 57 55 63 67 67 63 57 51 45 39 42 42 42 44 47 49 51 51 50 49 50 51 53 53
79 92 103 102 97 99 102 100 112 116 114 31 81 130 134 166 15 4 20 33 42 51 56 66 60 55 50 46 43 42 44 44 46 47 50 53 52 51 51 52 51 53 54
73 84 97 100 98 101 109 113 114 119 126 114 47 65 128 145 136 83 3 12 35 47 49 64 59 52 50 47 46 46 47 46 47 47 50 52 53 52 50 50 51 53 54
59 77 90 94 92 93 104 101 99 105 119 133 133 109 83 75 92 125 115 10 26 24 36 53 59 52 47 47 48 50 51 50 49 48 50 52 52 52 51 51 51 53 55
38 60 84 91 94 93 96 101 100 99 99 105 108 111 129 126 135 125 132 124 71 13 18 27 43 47 48 49 53 56 55 53 51 50 50 51 50 50 51 51 51 51 52
82 70 83 87 88 93 97 95 91 90 93 98 102 105 110 126 138 131 127 131 101 13 9 7 10 35 52 53 53 57 59 56 53 54 54 52 51 50 50 49 49 49 50
169 135 103 96 94 95 97 92 85 86 90 92 91 92 91 90 114 130 139 135 107 39 21 347 345 16 42 58 61 65 61 62 59 57 55 53 51 50 49 47 46 46 48
154 124 114 101 97 97 99 96 85 80 88 85 88 88 85 77 85 102 122 136 137 126 6 293 313 334 16 57 64 67 64 67 64 62 59 55 53 51 49 48 47 47 50
137 129 121 115 104 97 98 93 89 86 87 80 88 87 80 74 71 79 103 107 121 136 152 241 244 263 6 61 64 66 63 65 61 61 62 59 56 53 50 49 48 49 51
150 150 150 135 119 109 103 101 99 96 92 78 76 86 80 81 78 71 82 90 95 114 128 233 310 357 41 56 58 63 59 58 53 57 62 60 56 53 51 51 51 51 51
155 156 150 139 138 130 121 118 116 108 110 106 98 95 86 89 79 71 80 83 89 102 128 129 14 13 34 59 68 68 53 53 49 50 53 52 52 52 50 48 49 50 50
146 146 142 145 148 145 133 130 125 120 122 126 126 120 114 104 91 84 86 88 85 83 93 117 89 18 23 40 55 45 41 36 32 40 40 39 41 43 44 43 43 44 44
144 146 145 145 146 142 140 136 125 118 113 111 119 128 132 134 135 126 109 106 105 89 86 96 81 37 25 17 62 55 24 9 4 20 22 26 31 37 37 38 36 37 36
144 143 134 128 128 135 147 142 135 133 128 115 95 109 133 145 153 149 137 134 123 110 101 98 88 48 19 30 25 14 71 355 351 4 2 4 13 14 7 8 17 24 27
136 134 136 137 139 144 145 144 141 133 134 137 133 114 110 117 125 124 130 139 144 142 146 141 144 161 236 231 199 125 118 50 325 323 15 332 6 329 321 329 340 0 12
141 136 139 141 145 159 151 143 138 134 136 148 155 153 146 138 126 116 102 100 100 150 169 163 169 202 209 211 177 162 183 186 228 264 54 312 332 314 309 322 333 344 358
151 152 154 154 152 173 160 148 140 127 131 153 175 176 164 162 166 153 133 103 61 358 201 173 186 210 215 201 186 185 187 182 295 302 130 259 309 299 312 317 322 326 339
157 162 162 162 162 186 178 162 143 129 136 165 203 179 168 174 187 164 143 145 130 317 22 167 195 219 229 219 183 129 111 97 308 293 242 184 273 296 301 299 306 311 316
164 161 161 170 170 184 189 174 156 143 153 178 206 232 186 183 183 167 160 165 192 244 247 27 14 342 320 274 216 183 174 171 206 271 251 178 246 328 316 294 295 305 310
Height
1551 1552 1552 1552 1553 1553 1553 1553 1553 1553 1553 1554 1554 1554 1555 1554 1555 1555 1554 1554 1553 1552 1551 1550 1549 1548 1547 1545 1543 1541 1539 1537 1535 1533 1530 1527 1524 1520 1517 1515 1514 1513 1512
1553 1553 1553 1553 1554 1554 1554 1554 1554 1555 1555 1555 1556 1556 1556 1556 1556 1556 1556 1555 1554 1554 1553 1552 1551 1550 1548 1547 1545 1543 1541 1538 1536 1534 1531 1528 1524 1520 1517 1515 1515 1514 1513
1553 1554 1554 1555 1555 1555 1556 1556 1556 1556 1557 1557 1557 1557 1558 1558 1558 1558 1558 1557 1556 1556 1555 1554 1553 1551 1550 1548 1546 1544 1542 1540 1537 1535 1532 1529 1525 1520 1517 1516 1516 1516 1515
1555 1555 1555 1556 1556 1556 1557 1557 1558 1558 1558 1558 1559 1559 1559 1560 1560 1560 1559 1559 1558 1557 1557 1556 1555 1553 1552 1550 1548 1546 1544 1542 1539 1537 1534 1530 1527 1523 1521 1520 1519 1519 1518
1556 1556 1556 1557 1557 1558 1558 1558 1559 1559 1560 1560 1560 1561 1561 1561 1561 1561 1561 1561 1560 1559 1558 1557 1556 1555 1554 1552 1550 1548 1546 1543 1541 1538 1535 1533 1530 1528 1526 1525 1523 1522 1521
1557 1557 1557 1558 1558 1558 1559 1559 1560 1560 1561 1561 1562 1562 1562 1563 1563 1563 1563 1562 1562 1561 1560 1559 1558 1557 1555 1554 1552 1550 1548 1545 1543 1540 1537 1535 1533 1532 1530 1529 1527 1526 1524
1558 1558 1558 1558 1559 1559 1559 1560 1561 1561 1562 1562 1563 1563 1564 1565 1565 1564 1564 1564 1563 1563 1562 1561 1559 1558 1557 1555 1553 1552 1550 1548 1545 1543 1540 1538 1536 1535 1534 1532 1531 1529 1528
1558 1558 1559 1559 1559 1560 1560 1560 1561 1561 1562 1563 1564 1564 1565 1567 1566 1566 1566 1566 1565 1564 1564 1562 1561 1560 1558 1557 1555 1554 1552 1550 1548 1545 1543 1541 1539 1538 1537 1535 1534 1533 1531
1559 1559 1560 1560 1560 1560 1561 1561 1562 1562 1563 1564 1564 1565 1565 1566 1567 1568 1567 1567 1566 1566 1565 1564 1563 1562 1560 1559 1557 1555 1554 1552 1550 1548 1546 1544 1543 1541 1540 1538 1537 1536 1534
1560 1560 1560 1561 1561 1561 1561 1562 1562 1563 1563 1564 1564 1565 1566 1566 1566 1568 1569 1568 1568 1567 1567 1566 1565 1563 1562 1560 1559 1557 1556 1554 1553 1551 1549 1547 1546 1544 1543 1541 1540 1539 1537
1561 1561 1561 1561 1562 1562 1562 1563 1563 1563 1564 1564 1564 1564 1565 1565 1566 1567 1568 1569 1569 1569 1568 1567 1566 1565 1564 1562 1561 1559 1558 1557 1555 1553 1551 1550 1549 1547 1545 1544 1542 1541 1540
1562 1562 1562 1562 1563 1563 1563 1563 1564 1564 1564 1564 1564 1565 1565 1565 1566 1566 1567 1568 1569 1570 1569 1569 1568 1567 1565 1564 1563 1562 1560 1558 1557 1555 1554 1552 1551 1549 1548 1546 1544 1543 1541
1562 1563 1563 1563 1564 1564 1564 1564 1564 1564 1565 1565 1565 1565 1565 1566 1566 1567 1567 1568 1569 1570 1570 1570 1569 1568 1567 1566 1565 1563 1562 1560 1559 1557 1556 1554 1553 1551 1550 1548 1546 1544 1543
1563 1564 1564 1564 1565 1565 1565 1565 1565 1565 1565 1565 1565 1565 1566 1566 1567 1567 1568 1568 1569 1571 1571 1571 1570 1569 1568 1568 1566 1565 1564 1562 1561 1559 1558 1556 1554 1553 1551 1549 1547 1545 1544
1564 1564 1565 1565 1565 1566 1566 1566 1566 1566 1566 1566 1566 1566 1566 1567 1567 1568 1569 1570 1570 1570 1571 1571 1570 1570 1569 1569 1568 1567 1565 1564 1562 1561 1559 1558 1556 1555 1553 1551 1549 1547 1545
1565 1565 1566 1566 1566 1567 1567 1567 1567 1567 1567 1567 1567 1567 1568 1568 1568 1569 1569 1570 1571 1571 1571 1571 1571 1571 1571 1570 1569 1568 1567 1565 1564 1563 1561 1560 1558 1556 1555 1553 1550 1548 1547
1565 1566 1566 1567 1567 1568 1568 1568 1568 1568 1568 1568 1568 1568 1568 1569 1569 1569 1570 1570 1571 1571 1571 1571 1572 1572 1571 1571 1570 1569 1568 1567 1566 1564 1563 1561 1560 1558 1556 1554 1552 1550 1549
1566 1567 1567 1568 1568 1568 1569 1569 1569 1569 1569 1569 1569 1569 1569 1570 1570 1570 1570 1571 1571 1571 1571 1571 1572 1572 1572 1571 1571 1570 1569 1568 1567 1566 1564 1563 1561 1559 1558 1555 1554 1552 1550
1566 1567 1568 1568 1569 1569 1569 1570 1570 1570 1570 1570 1570 1570 1570 1571 1570 1571 1571 1571 1571 1571 1572 1572 1572 1572 1572 1572 1571 1571 1570 1569 1568 1567 1565 1564 1562 1560 1559 1557 1555 1553 1551
1567 1567 1568 1569 1569 1570 1570 1570 1571 1571 1571 1571 1571 1571 1571 1571 1571 1571 1571 1572 1572 1572 1572 1572 1572 1572 1572 1572 1571 1571 1570 1569 1568 1567 1566 1564 1563 1561 1560 1558 1556 1554 1552
1567 1568 1569 1569 1570 1570 1570 1571 1571 1571 1571 1572 1572 1572 1572 1572 1572 1572 1572 1572 1572 1573 1573 1573 1572 1572 1572 1572 1571 1570 1570 1569 1568 1567 1566 1565 1563 1562 1560 1558 1556 1555 1553
1566 1568 1569 1569 1570 1570 1571 1571 1571 1571 1572 1572 1572 1572 1572 1572 1573 1573 1573 1573 1573 1573 1573 1573 1572 1572 1572 1571 1571 1570 1569 1568 1567 1567 1565 1564 1563 1561 1560 1558 1556 1555 1553
1566 1567 1568 1569 1570 1570 1571 1571 1571 1571 1572 1572 1572 1572 1572 1572 1572 1573 1573 1573 1572 1572 1573 1572 1572 1571 1571 1570 1570 1569 1568 1567 1566 1566 1565 1563 1562 1560 1559 1557 1556 1554 1553
1565 1566 1568 1568 1569 1570 1570 1570 1571 1571 1571 1571 1572 1572 1572 1572 1572 1572 1572 1572 1572 1572 1571 1571 1571 1570 1570 1569 1569 1568 1567 1566 1565 1565 1563 1562 1560 1559 1558 1556 1555 1553 1551
1564 1565 1567 1567 1568 1569 1569 1570 1570 1570 1570 1570 1571 1571 1571 1571 1571 1571 1571 1571 1571 1570 1570 1570 1569 1569 1568 1567 1567 1566 1565 1564 1563 1562 1561 1560 1558 1556 1555 1554 1553 1551 1549
1562 1564 1565 1566 1567 1567 1568 1568 1569 1569 1569 1569 1569 1570 1570 1570 1570 1570 1570 1569 1569 1569 1568 1568 1567 1567 1566 1565 1565 1564 1563 1562 1561 1560 1559 1558 1556 1555 1552 1551 1550 1549 1547